| time (UTC) | temp F | wind direction | speed MPH | gust MPH | rain 1hr in | rain 24hr in | rain mn in | humidity % | barometer mb |
| 20260507204253 | 61 | 0.0 | 0.0 | 0.00 | 0.00 | 0.00 | 60 | 1020.0 | |
| 20260507202752 | 61 | 0.0 | 0.0 | 0.00 | 0.00 | 0.00 | 59 | 1019.6 | |
| 20260507201253 | 62 | 0.0 | 0.0 | 0.00 | 0.00 | 0.00 | 59 | 1019.5 | |
| 20260507195753 | 62 | 0.0 | 0.0 | 0.00 | 0.00 | 0.00 | 58 | 1019.0 | |
| 20260507194252 | 63 | 0.0 | 0.0 | 0.00 | 0.00 | 0.00 | 58 | 1018.9 | |
| 20260507192753 | 64 | 0.0 | 0.0 | 0.00 | 0.00 | 0.00 | 57 | 1018.6 | |
| 20260507191253 | 64 | 0.0 | 0.0 | 0.00 | 0.00 | 0.00 | 56 | 1018.4 | |
| 20260507185753 | 65 | 0.0 | 0.0 | 0.00 | 0.00 | 0.00 | 55 | 1018.1 | |
| 20260507184252 | 66 | 0.0 | 0.0 | 0.00 | 0.00 | 0.00 | 54 | 1018.0 | |
| 20260507182752 | 67 | 0.0 | 0.0 | 0.00 | 0.00 | 0.00 | 53 | 1017.6 | |
| 20260507181252 | 67 | 0.0 | 0.0 | 0.00 | 0.00 | 0.00 | 52 | 1017.4 | |
| 20260507175752 | 68 | 0.0 | 0.0 | 0.00 | 0.00 | 0.00 | 51 | 1017.0 | |
| 20260507174253 | 68 | 0.0 | 0.0 | 0.00 | 0.00 | 0.00 | 51 | 1016.9 | |
| 20260507172752 | 69 | 0.0 | 0.0 | 0.00 | 0.00 | 0.00 | 50 | 1016.6 | |
| 20260507171253 | 70 | 0.0 | 0.0 | 0.00 | 0.00 | 0.00 | 50 | 1016.7 | |
| 20260507165753 | 71 | 0.0 | 0.0 | 0.00 | 0.00 | 0.00 | 50 | 1016.5 | |
| 20260507164253 | 72 | 0.0 | 0.0 | 0.00 | 0.00 | 0.00 | 51 | 1016.5 | |
| 20260507162752 | 72 | 0.0 | 0.0 | 0.00 | 0.00 | 0.00 | 51 | 1016.5 | |
| 20260507161253 | 73 | 0.0 | 0.0 | 0.00 | 0.00 | 0.00 | 51 | 1016.4 | |
| 20260507155753 | 73 | 0.0 | 0.0 | 0.00 | 0.00 | 0.00 | 51 | 1016.6 | |
| 20260507154253 | 73 | 0.0 | 0.0 | 0.00 | 0.00 | 0.00 | 51 | 1016.7 | |
| 20260507152752 | 74 | 0.0 | 0.0 | 0.00 | 0.00 | 0.00 | 51 | 1016.7 | |
| 20260507151252 | 75 | 0.0 | 0.0 | 0.00 | 0.00 | 0.00 | 52 | 1016.7 | |
| 20260507145752 | 74 | 0.0 | 0.0 | 0.00 | 0.00 | 0.00 | 52 | 1016.9 | |
| 20260507144253 | 75 | 0.0 | 0.0 | 0.00 | 0.00 | 0.00 | 53 | 1016.9 | |
| 20260507142752 | 75 | 0.0 | 0.0 | 0.00 | 0.00 | 0.00 | 53 | 1017.1 | |
| 20260507141253 | 74 | 0.0 | 0.0 | 0.00 | 0.00 | 0.00 | 53 | 1017.3 | |
| 20260507135753 | 75 | 0.0 | 0.0 | 0.00 | 0.00 | 0.00 | 53 | 1017.2 | |
| 20260507134253 | 75 | 0.0 | 0.0 | 0.00 | 0.00 | 0.00 | 53 | 1017.5 | |
| 20260507132753 | 72 | 0.0 | 0.0 | 0.00 | 0.00 | 0.00 | 52 | 1017.6 | |
| 20260507131253 | 72 | 0.0 | 0.0 | 0.00 | 0.00 | 0.00 | 52 | 1017.8 | |
| 20260507125753 | 71 | 0.0 | 0.0 | 0.00 | 0.00 | 0.00 | 53 | 1017.5 | |
| 20260507124253 | 71 | 0.0 | 0.0 | 0.00 | 0.00 | 0.00 | 53 | 1017.6 | |
| 20260507122752 | 71 | 0.0 | 0.0 | 0.00 | 0.00 | 0.00 | 53 | 1017.6 | |
| 20260507121253 | 70 | 0.0 | 0.0 | 0.00 | 0.00 | 0.00 | 56 | 1017.6 | |
| 20260507115753 | 69 | 0.0 | 0.0 | 0.00 | 0.00 | 0.00 | 58 | 1017.8 | |
| 20260507114253 | 68 | 0.0 | 0.0 | 0.00 | 0.00 | 0.00 | 59 | 1017.9 | |
| 20260507112752 | 68 | 0.0 | 0.0 | 0.00 | 0.00 | 0.00 | 61 | 1018.0 | |
| 20260507111253 | 67 | 0.0 | 0.0 | 0.00 | 0.00 | 0.00 | 64 | 1018.1 | |
| 20260507105752 | 66 | 0.0 | 0.0 | 0.00 | 0.00 | 0.00 | 68 | 1018.3 | |
| 20260507104253 | 65 | 0.0 | 0.0 | 0.00 | 0.00 | 0.00 | 70 | 1018.4 | |
| 20260507102753 | 64 | 0.0 | 0.0 | 0.00 | 0.00 | 0.00 | 72 | 1018.7 | |
| 20260507101253 | 63 | 0.0 | 0.0 | 0.00 | 0.00 | 0.00 | 76 | 1018.6 | |
| 20260507095753 | 61 | 0.0 | 0.0 | 0.00 | 0.00 | 0.00 | 79 | 1018.8 | |
| 20260507094252 | 60 | 0.0 | 0.0 | 0.00 | 0.00 | 0.00 | 79 | 1018.7 | |
| 20260507092753 | 58 | 0.0 | 0.0 | 0.00 | 0.00 | 0.00 | 81 | 1018.7 | |
| 20260507091253 | 58 | 0.0 | 0.0 | 0.00 | 0.00 | 0.00 | 81 | 1018.9 | |
| 20260507085752 | 56 | 0.0 | 0.0 | 0.00 | 0.00 | 0.00 | 82 | 1018.9 | |
| 20260507084253 | 55 | 0.0 | 0.0 | 0.00 | 0.00 | 0.00 | 82 | 1018.9 | |
| 20260507082753 | 54 | 0.0 | 0.0 | 0.00 | 0.00 | 0.00 | 82 | 1019.0 | |
| 20260507081253 | 54 | 0.0 | 0.0 | 0.00 | 0.00 | 0.00 | 83 | 1019.1 | |
| 20260507075753 | 52 | 0.0 | 0.0 | 0.00 | 0.00 | 0.00 | 83 | 1019.4 | |
| 20260507074252 | 50 | 0.0 | 0.0 | 0.00 | 0.00 | 0.00 | 83 | 1019.4 | |
| 20260507072752 | 50 | 0.0 | 0.0 | 0.00 | 0.00 | 0.00 | 83 | 1019.4 | |
| 20260507071252 | 50 | 0.0 | 0.0 | 0.00 | 0.00 | 0.00 | 83 | 1019.4 | |
| 20260507065752 | 50 | 0.0 | 0.0 | 0.00 | 0.00 | 0.00 | 83 | 1019.4 | |
| 20260507064252 | 50 | 0.0 | 0.0 | 0.00 | 0.00 | 0.00 | 83 | 1019.4 | |
| 20260507062752 | 50 | 0.0 | 0.0 | 0.00 | 0.00 | 0.00 | 83 | 1019.5 | |
| 20260507061252 | 50 | 0.0 | 0.0 | 0.00 | 0.00 | 0.00 | 83 | 1019.4 | |
| 20260507055752 | 50 | 0.0 | 0.0 | 0.00 | 0.00 | 0.00 | 83 | 1019.4 | |
| 20260507054252 | 50 | 0.0 | 0.0 | 0.00 | 0.00 | 0.00 | 83 | 1018.5 | |
| 20260507052753 | 50 | 0.0 | 0.0 | 0.00 | 0.00 | 0.00 | 83 | 1018.5 | |
| 20260507051253 | 50 | 0.0 | 0.0 | 0.00 | 0.00 | 0.00 | 83 | 1018.5 | |
| 20260507045752 | 50 | 0.0 | 0.0 | 0.00 | 0.00 | 0.00 | 83 | 1018.5 | |
| 20260507044252 | 50 | 0.0 | 0.0 | 0.00 | 0.00 | 0.00 | 82 | 1018.4 | |
| 20260507042753 | 50 | 0.0 | 0.0 | 0.00 | 0.00 | 0.00 | 82 | 1018.2 | |
| 20260507041252 | 50 | 0.0 | 0.0 | 0.00 | 0.00 | 0.00 | 82 | 1018.2 | |
| 20260507035752 | 50 | 0.0 | 0.0 | 0.00 | 0.00 | 0.00 | 82 | 1018.1 | |
| 20260507034252 | 51 | 0.0 | 0.0 | 0.00 | 0.00 | 0.00 | 82 | 1018.3 | |
| 20260507031252 | 51 | 0.0 | 0.0 | 0.00 | 0.00 | 0.00 | 82 | 1018.1 | |
| 20260507025752 | 52 | 0.0 | 0.0 | 0.00 | 0.00 | 0.00 | 82 | 1018.2 | |
| 20260507024252 | 52 | 0.0 | 0.0 | 0.00 | 0.00 | 0.00 | 82 | 1018.3 | |
| 20260507022753 | 52 | 0.0 | 0.0 | 0.00 | 0.00 | 0.00 | 82 | 1018.3 | |
| 20260507021253 | 52 | 0.0 | 0.0 | 0.00 | 0.00 | 0.00 | 82 | 1018.2 | |
| 20260507015752 | 52 | 0.0 | 0.0 | 0.00 | 0.00 | 0.00 | 82 | 1018.0 | |
| 20260507014252 | 53 | 0.0 | 0.0 | 0.00 | 0.00 | 0.00 | 82 | 1017.5 | |
| 20260507012752 | 53 | 0.0 | 0.0 | 0.00 | 0.00 | 0.00 | 82 | 1017.6 | |
| 20260507011252 | 53 | 0.0 | 0.0 | 0.00 | 0.00 | 0.00 | 82 | 1017.7 | |
| 20260507005753 | 53 | 0.0 | 0.0 | 0.00 | 0.00 | 0.00 | 82 | 1017.6 | |
| 20260507004252 | 53 | 0.0 | 0.0 | 0.00 | 0.00 | 0.00 | 82 | 1017.5 | |
| 20260507002753 | 53 | 0.0 | 0.0 | 0.00 | 0.00 | 0.00 | 82 | 1017.5 | |
| 20260507001252 | 53 | 0.0 | 0.0 | 0.00 | 0.00 | 0.00 | 82 | 1017.4 | |
| 20260506235752 | 53 | 0.0 | 0.0 | 0.00 | 0.00 | 0.00 | 82 | 1017.4 | |
| 20260506234252 | 53 | 0.0 | 0.0 | 0.00 | 0.00 | 0.00 | 82 | 1017.5 | |
| 20260506232752 | 53 | 0.0 | 0.0 | 0.00 | 0.00 | 0.00 | 82 | 1017.5 | |
| 20260506231252 | 54 | 0.0 | 0.0 | 0.00 | 0.00 | 0.00 | 82 | 1017.5 | |
| 20260506225752 | 54 | 0.0 | 0.0 | 0.00 | 0.00 | 0.00 | 81 | 1017.5 | |
| 20260506224252 | 54 | 0.0 | 0.0 | 0.00 | 0.00 | 0.00 | 81 | 1017.6 | |
| 20260506222752 | 54 | 0.0 | 0.0 | 0.00 | 0.00 | 0.00 | 81 | 1017.6 | |
| 20260506221252 | 54 | 0.0 | 0.0 | 0.01 | 0.00 | 0.00 | 81 | 1017.8 | |
| 20260506215753 | 54 | 0.0 | 0.0 | 0.02 | 0.00 | 0.19 | 81 | 1017.2 | |
| 20260506214252 | 54 | 0.0 | 0.0 | 0.02 | 0.00 | 0.19 | 81 | 1017.3 | |
| 20260506212752 | 54 | 0.0 | 0.0 | 0.02 | 0.00 | 0.19 | 81 | 1017.0 | |
| 20260506211252 | 54 | 0.0 | 0.0 | 0.01 | 0.00 | 0.18 | 81 | 1017.4 | |
| 20260506205752 | 54 | 0.0 | 0.0 | 0.00 | 0.00 | 0.17 | 80 | 1017.4 |